EHI
0 0 0 0 0 0 0 0 0 0 0 0 0 0 0 0 0 1 2 2 2 1 0 0 0 0 0 1 0 0 0 1 2 3 3 3 1 0 0 0 0 0 0 0
0 0 0 0 0 0 0 0 0 0 0 0 0 0 0 0 0 0 1 1 1 1 0 0 0 0 0 1 1 1 1 1 2 3 3 3 2 1 1 0 0 0 0 0
0 0 0 0 0 0 0 0 0 0 0 0 0 0 0 0 0 0 0 0 0 0 0 0 0 0 0 0 1 1 1 1 2 3 3 3 3 3 2 1 1 0 0 0
0 0 0 0 0 0 0 0 0 0 0 0 0 0 0 0 0 0 0 0 0 0 0 0 0 0 0 1 1 1 1 1 2 3 3 3 3 3 3 3 2 1 0 0
0 0 0 0 0 0 0 0 0 0 0 0 0 0 0 0 0 0 0 0 0 0 0 0 0 0 0 1 2 1 0 0 2 3 3 2 1 2 3 3 2 1 0 0
0 0 0 0 0 0 0 0 0 0 0 0 0 0 0 0 0 0 0 0 0 0 0 0 0 0 0 1 1 1 0 0 1 2 1 1 1 2 2 2 1 0 0 0
0 0 0 0 0 0 0 0 0 0 0 0 0 0 0 0 0 0 0 0 0 0 0 0 0 0 0 0 0 0 0 0 0 0 0 0 1 1 1 1 0 0 0 0
0 0 0 0 0 0 0 0 0 0 0 0 0 0 0 0 0 0 0 0 0 0 0 0 0 0 0 0 0 0 0 0 0 0 0 0 0 0 0 0 0 0 0 0
0 0 0 0 0 0 0 0 0 0 0 0 0 0 0 0 0 0 0 0 0 0 0 0 0 0 0 0 0 0 0 0 0 0 0 0 0 0 1 2 1 0 0 0
0 0 0 0 0 0 0 0 0 0 0 0 0 0 0 0 0 0 0 0 0 0 0 0 0 0 0 0 0 1 0 0 0 0 0 0 0 0 2 2 2 0 0 0
0 0 0 0 0 0 0 0 0 0 0 0 0 0 0 0 0 0 0 0 0 0 0 0 0 0 0 0 0 0 0 0 0 0 0 0 0 0 1 2 1 0 0 0
0 0 0 0 0 0 0 0 0 0 0 0 0 0 0 0 0 0 0 0 0 0 0 0 0 0 0 0 0 0 0 0 0 0 0 0 0 0 0 0 0 0 0 0
0 0 0 0 0 0 0 0 0 0 0 0 0 0 0 0 0 0 0 0 0 0 0 0 0 0 0 0 0 0 0 0 1 1 1 1 1 0 0 0 0 0 0 0
0 0 0 0 0 0 0 0 0 0 0 0 0 0 0 0 0 0 0 0 0 0 0 0 0 0 0 0 0 0 0 0 1 2 1 1 0 0 1 1 1 0 0 0
0 0 0 0 0 0 0 0 0 0 0 0 0 0 0 0 0 0 0 0 0 0 0 0 0 0 0 0 0 0 0 1 1 2 1 1 1 1 1 3 2 1 0 0
0 0 0 0 0 0 0 0 0 0 0 0 0 0 0 0 0 0 0 0 0 0 0 0 0 0 0 0 0 0 1 2 2 2 2 2 2 2 3 4 3 2 1 0
0 0 0 0 0 0 0 0 0 0 0 0 0 0 0 0 0 0 0 0 0 0 0 0 0 0 0 0 0 1 2 3 3 2 2 2 2 3 4 4 3 2 1 0
0 0 0 0 0 0 0 0 0 0 0 0 0 0 0 0 0 0 0 0 0 0 0 0 0 0 0 0 1 2 3 3 2 1 1 1 1 2 3 3 3 3 1 0
0 0 0 0 0 0 0 0 0 0 0 0 0 0 0 0 0 0 0 0 0 0 0 0 0 0 0 0 1 3 4 3 2 1 0 0 0 1 2 3 3 3 2 1
0 0 0 0 0 0 0 0 0 0 0 0 0 0 0 0 0 0 0 0 0 0 0 0 0 0 0 0 1 3 4 3 3 1 0 0 1 1 1 2 3 3 3 3
0 0 0 0 0 0 0 0 0 0 0 0 0 0 0 0 0 0 0 0 0 0 0 0 0 0 0 0 1 2 3 2 2 1 0 1 2 2 2 3 3 3 3 3
0 0 0 0 0 0 0 0 0 0 0 0 0 0 0 0 0 0 0 0 0 0 0 0 0 0 0 0 1 2 1 1 1 1 0 1 2 3 3 3 3 3 3 3
0 0 0 0 0 0 0 0 0 0 0 0 0 0 0 0 0 0 0 0 0 0 0 0 0 0 0 0 1 1 0 0 0 0 0 1 2 3 3 3 3 3 3 3
0 0 0 0 0 0 0 0 0 0 0 0 0 0 0 0 0 0 0 0 0 0 0 0 0 0 0 0 0 0 0 0 0 0 0 1 2 3 3 3 3 3 3 3
0 0 0 0 0 0 0 0 0 0 0 0 0 0 0 0 0 0 0 0 0 0 0 0 0 0 0 0 0 0 0 0 0 0 0 1 2 3 3 3 2 2 2 2
0 0 0 0 0 0 0 0 0 0 0 0 0 0 0 0 0 0 0 0 0 0 0 0 0 0 0 0 0 0 0 0 0 0 0 0 1 3 3 2 1 1 1 1
Wind_Speed
4 5 5 4 4 3 3 4 4 2 2 4 6 6 5 5 7 7 7 8 8 7 7 6 5 5 5 5 5 5 5 5 4 3 3 2 2 2 2 1 2 2 1 1
5 5 3 2 3 5 6 5 4 2 2 4 5 8 6 5 7 8 8 8 8 8 7 7 6 6 6 6 6 6 6 5 4 3 2 2 2 1 2 1 2 2 1 1
6 2 2 4 5 6 6 6 5 4 3 5 6 7 6 5 7 7 8 8 8 8 8 8 8 7 7 6 6 5 6 6 5 4 2 2 2 2 2 2 2 2 2 1
4 3 4 5 6 7 6 4 5 5 6 4 4 5 3 4 6 7 8 9 9 9 9 8 8 8 7 7 6 6 6 5 5 5 4 4 3 3 2 2 2 3 2 2
4 4 5 6 4 6 4 2 4 6 7 7 6 7 3 4 5 6 7 8 9 9 9 9 8 8 7 7 6 5 5 5 4 4 4 4 4 2 2 2 3 3 2 3
3 3 4 3 1 2 3 4 5 6 6 8 5 7 4 3 4 4 6 7 8 9 9 9 8 7 6 6 6 5 5 5 5 5 5 5 4 4 3 3 3 2 2 2
5 5 4 3 4 4 6 6 5 5 6 4 2 6 5 1 2 4 4 5 6 8 9 9 9 8 7 7 6 6 6 6 6 6 6 5 5 5 4 4 4 3 3 3
5 5 5 4 6 5 6 7 6 4 3 2 3 6 2 1 2 3 4 4 5 7 8 8 8 8 7 7 7 7 7 7 6 6 6 5 5 3 3 4 4 4 3 3
4 3 3 2 3 5 6 6 5 7 6 7 4 4 3 2 2 3 3 4 5 6 7 8 8 8 7 7 7 7 7 7 7 6 6 5 5 5 4 5 4 4 4 3
4 4 3 2 4 2 4 4 5 6 5 6 5 6 4 2 2 2 3 5 5 5 7 7 7 7 6 6 6 6 7 7 6 6 6 5 5 5 5 5 5 5 5 4
5 6 4 5 6 6 5 6 6 5 5 5 5 2 0 2 2 2 3 4 5 6 6 6 6 6 5 5 5 5 6 7 6 6 6 6 5 5 5 5 5 5 5 5
4 6 6 5 2 3 7 7 8 7 7 7 7 4 2 1 2 2 2 2 4 5 5 5 5 5 5 5 5 5 5 6 6 6 6 6 5 5 6 6 6 6 5 5
3 6 6 6 6 5 5 6 7 7 7 8 9 5 3 1 2 2 2 2 3 4 5 5 5 5 5 4 4 5 5 5 5 5 6 6 6 6 6 6 5 5 5 5
5 7 9 8 5 3 6 7 8 9 9 10 12 11 7 6 5 4 3 3 3 4 4 5 4 5 4 4 4 4 4 5 5 5 6 6 6 6 5 5 5 5 5 5
5 8 9 9 8 7 10 11 11 13 14 13 12 12 11 8 7 6 4 3 3 4 5 5 5 4 4 4 4 3 4 4 5 6 6 6 6 5 5 4 4 4 5 5
5 7 8 9 8 9 12 13 13 14 14 14 14 13 9 7 6 5 4 3 4 4 4 5 5 5 4 4 4 4 4 4 5 6 6 5 5 5 5 5 4 4 4 5
5 7 8 9 7 8 11 11 13 12 11 12 13 11 7 6 5 5 5 4 4 4 4 5 5 5 5 4 4 4 4 4 4 5 5 5 6 5 5 5 4 4 4 4
7 8 6 7 7 11 3 1 5 8 8 8 9 8 7 7 7 5 4 4 4 4 4 4 4 4 4 4 4 4 3 4 4 5 5 5 6 6 5 5 5 5 5 4
8 8 6 6 9 9 5 2 3 6 7 4 6 6 6 6 6 5 2 4 5 4 4 4 4 4 3 3 3 3 3 3 4 5 5 6 6 6 6 6 6 5 4 4
5 7 7 7 9 8 2 2 3 6 7 1 4 6 6 5 6 3 4 5 4 3 3 2 2 3 3 3 3 3 3 3 4 4 5 5 6 6 6 6 6 5 4 4
5 7 9 11 10 7 2 2 3 7 3 5 5 6 6 5 6 5 5 5 3 2 1 1 2 2 2 3 3 4 4 4 4 4 4 4 5 6 6 5 5 5 4 4
7 6 8 8 10 6 3 1 3 5 6 5 6 6 6 6 5 4 4 4 2 1 1 1 1 1 1 2 3 3 3 3 3 3 3 3 3 3 4 4 4 4 5 5
6 5 4 5 4 3 1 3 4 5 5 6 7 6 5 5 5 5 4 3 2 1 1 1 1 1 1 2 3 3 2 2 2 3 3 3 3 3 3 4 4 4 4 4
3 3 6 7 6 5 4 4 4 4 5 6 7 6 5 5 5 5 3 2 2 1 1 1 1 1 1 2 2 2 2 2 2 3 3 3 3 3 3 3 3 4 4 4
6 5 7 9 6 5 5 4 5 5 6 6 6 6 5 5 5 4 3 2 2 2 2 2 2 1 2 2 2 1 2 2 3 2 2 3 3 3 3 3 3 4 4 3
7 8 8 7 5 6 6 5 6 6 6 6 6 6 5 4 5 4 3 2 2 2 2 2 2 2 2 2 1 1 2 2 3 2 2 2 2 2 2 2 2 1 1 2
Wind_Direction
176 196 202 206 227 251 231 230 222 210 173 232 247 258 245 212 216 220 213 207 207 201 191 181 183 183 182 181 179 168 173 169 167 169 180 170 162 154 143 145 140 140 161 164
179 207 221 219 210 215 219 232 236 205 192 251 265 268 258 222 218 222 219 213 209 201 192 182 186 188 191 185 184 180 177 172 171 179 185 183 169 170 137 158 161 169 186 198
213 160 166 196 199 215 224 242 255 252 236 237 272 263 230 208 215 219 223 221 215 207 200 189 187 189 192 192 190 187 182 176 173 172 172 171 170 187 178 178 172 189 201 207
222 209 201 213 220 236 235 242 250 240 248 250 254 281 236 211 209 213 217 215 212 205 202 195 191 191 193 194 193 191 181 178 174 172 185 194 203 208 209 198 187 195 203 208
198 200 214 225 231 246 264 239 228 240 255 262 240 263 253 201 220 214 211 209 208 204 200 197 195 193 192 189 188 188 180 179 181 189 197 216 222 221 210 199 196 201 197 211
227 216 242 248 231 231 193 197 204 224 243 250 242 254 262 209 230 218 207 205 204 200 198 200 196 190 190 185 182 185 188 185 185 199 206 215 218 218 209 213 213 215 206 215
211 201 198 210 199 185 214 231 229 218 218 239 187 248 259 291 258 246 229 208 198 196 194 193 192 189 190 187 184 186 190 191 190 200 208 213 220 222 220 223 220 225 224 218
224 204 183 208 233 228 221 241 257 270 266 264 208 245 267 331 279 255 241 218 199 194 193 191 191 192 193 192 192 192 193 195 193 201 208 212 215 223 227 231 229 230 234 232
238 210 146 225 254 244 220 228 266 277 277 273 246 244 258 211 223 223 216 203 199 192 192 192 192 194 194 196 197 199 200 200 198 202 209 213 216 219 227 232 230 231 237 237
264 246 189 177 193 205 266 229 218 238 255 257 252 250 250 219 236 219 212 209 201 195 194 192 192 196 198 198 201 203 205 205 204 206 210 213 220 223 228 230 229 230 232 229
252 247 207 200 224 218 195 208 229 239 255 266 267 248 50 265 268 247 230 208 194 193 193 191 191 195 198 198 200 203 209 208 208 209 214 215 218 225 225 227 230 233 231 226
239 260 242 225 226 287 248 238 231 242 241 251 273 273 91 256 293 282 260 207 191 187 187 189 190 191 194 198 202 206 213 212 211 214 217 221 219 223 226 227 229 230 229 225
219 244 245 214 190 192 221 228 238 254 259 250 254 254 120 231 281 272 254 229 194 186 188 188 190 193 196 199 203 205 214 220 214 216 221 223 223 226 229 228 230 230 227 223
251 247 252 260 282 259 242 237 238 241 249 253 253 269 276 287 293 290 267 242 218 203 196 196 202 205 202 202 206 211 214 221 219 217 222 226 226 227 229 228 227 226 226 224
244 254 253 263 271 264 260 253 244 244 252 262 269 271 281 290 294 291 277 245 226 217 208 204 206 207 206 205 208 212 217 219 218 218 223 227 228 226 227 222 223 223 224 228
242 255 256 253 252 256 259 253 247 247 253 257 266 269 282 293 292 288 275 248 233 227 221 211 210 207 211 213 213 212 218 220 221 222 224 222 222 222 223 218 219 220 222 227
233 245 255 258 260 262 250 245 240 237 239 251 260 273 289 282 283 286 286 260 242 237 232 222 216 214 215 217 221 221 221 219 221 225 223 217 215 215 220 217 213 216 219 220
244 242 251 263 254 249 267 3 254 249 253 258 271 287 287 290 291 281 278 271 262 253 247 238 227 221 218 216 221 226 220 219 223 222 221 218 216 216 216 214 216 220 220 215
236 233 240 249 254 260 256 249 250 250 256 275 281 295 306 307 276 250 281 289 282 271 260 248 239 228 218 215 216 217 218 222 230 230 225 220 219 217 215 211 214 218 217 217
204 224 237 240 253 258 275 20 312 261 247 322 307 304 309 300 270 289 347 318 298 283 266 249 225 210 208 208 205 213 217 224 234 239 239 232 224 221 217 216 214 210 211 216
196 213 230 241 250 259 349 357 256 244 321 351 313 304 299 283 300 322 322 311 297 279 262 228 205 193 200 200 203 218 228 239 245 244 242 238 229 226 220 217 207 202 203 209
237 230 229 236 244 248 65 335 271 327 343 332 323 318 304 300 311 314 315 313 302 280 239 207 189 177 185 199 207 220 241 254 254 244 240 236 230 229 220 210 203 201 199 200
245 257 265 252 267 342 335 303 318 324 319 327 321 320 317 312 310 313 312 312 299 277 256 230 185 174 188 204 218 229 252 256 245 234 232 235 227 222 222 209 197 198 202 205
241 264 259 259 255 273 283 290 308 320 317 318 316 314 311 310 311 309 305 301 301 296 286 247 218 219 225 227 238 242 248 244 232 228 224 225 219 214 212 209 204 204 207 209
265 251 258 262 269 270 259 271 295 307 309 309 308 305 302 299 298 298 295 298 304 305 286 262 248 249 257 249 251 262 250 238 233 228 225 225 219 215 209 206 209 213 213 218
245 249 253 266 281 280 288 296 294 292 295 296 296 297 296 291 287 287 293 303 299 302 297 290 283 271 267 257 259 277 266 244 234 233 231 231 222 212 209 203 191 132 199 163